Skip Page Navigation
NASA JPL Caltech
NASA Logo - Jet Propulsion Laboratory + View the NASA Portal
+ Near-Earth Object (NEO) Program
Search JPL
JPL Home Earth Solar System Stars & Galaxies Technology
JPL Solar System Dynamics
BODIES ORBITS EPHEMERIDES TOOLS PHYSICAL DATA DISCOVERY FAQ SITE MAP
JPL Small-Body Database Browser
Search: [ help ]  
138127 (2000 EE14)
Classification: Aten [NEO, PHA]          SPK-ID: 2138127
Ephemeris | Orbit Diagram | Orbital Elements | Physical Parameters | Discovery Circumstances | Close-Approach Data ]

[ hide orbit diagram ]
Orbit Diagram
Note: Make sure you have Java enabled on your browser to see the applet. This applet is provided as a 3D orbit visualization tool. The applet was implemented using 2-body methods, and hence should not be used for determining accurate long-term trajectories (over several years or decades) or planetary encounter circumstances. For accurate long-term ephemerides, please instead use our Horizons system.
Orbit Viewer

Additional Notes: the orbits shown in the applet are color coded. The planets are white lines, and the asteroid/comet is a blue line. The bright white line indicates the portion of the orbit that is above the ecliptic plane, and the darker portion is below the ecliptic plane. Likewise for the asteroid/comet orbit, the light blue indicates the portion above the ecliptic plane, and the dark blue the portion below the ecliptic plane.

Orbit Viewer applet originally written and kindly provided by Osamu Ajiki (AstroArts), and further modified by Ron Baalke (JPL).


Orbital Elements at Epoch 2456400.5 (2013-Apr-18.0) TDB
Reference: JPL 51 (heliocentric ecliptic J2000)
 Element Value Uncertainty (1-sigma)   Units 
e .5329601560024609 1.2991e-07  
a .6618376319599371 3.6728e-09 AU
q .3091045443822697 8.571e-08 AU
i 26.46573298765232 4.3735e-05 deg
node 155.7840043857905 1.93e-05 deg
peri 197.8184597611389 2.5329e-05 deg
M 307.8475336785016 6.6369e-05 deg
tp 2456428.990361743825
(2013-May-16.49036174)
3.6414e-05 JED
period 196.6643373018979
0.54
1.637e-06
4.482e-09
d
yr
n 1.830530155792134 1.5237e-08 deg/d
Q 1.014570719537604 5.6302e-09 AU
  Orbit Determination Parameters
   # obs. used (total)      281  
   data-arc span      4731 days (12.95 yr)  
   first obs. used      2000-03-04  
   last obs. used      2013-02-15  
   planetary ephem.      DE405  
   SB-pert. ephem.      SB405-CPV-2  
   condition code      0  
   fit RMS      .43754  
   data source      ORB  
   producer      Otto Matic  
   solution date      2013-Apr-29 15:38:51  

Additional Information
 Earth MOID = .0233412 AU 
 T_jup = 8.402 
[ show covariance matrix ]

Ephemeris | Orbit Diagram | Orbital Elements | Physical Parameters | Discovery Circumstances | Close-Approach Data ]

Physical Parameter Table
Parameter Symbol Value Units Sigma Reference Notes
absolute magnitude H 16.884 mag .53398 51 autocmod 2.5c

138127 (2000 EE14)          Discovered 2000-Mar-04 by LINEAR at Socorro (704)
Reference: 20061205/Numbers.arcLast Updated: 2006-12-13

[ show close-approach data ]
Ephemeris | Orbit Diagram | Orbital Elements | Physical Parameters | Discovery Circumstances | Close-Approach Data ]
ABOUT SSD CREDITS/AWARDS PRIVACY/COPYRIGHT GLOSSARY LINKS
FirstGov 2013-May-21 23:40 UT
(server date/time)  
NASA Home Page
Site Manager:   Donald K. Yeomans
Webmaster  Alan B. Chamberlin